,,PressureMeas_1m,,PRMeasQMR101_1,,RHStat155_1m_1,,SRMeasQMS101R_1m,,TAStat155_1m_1,,GenWind_1,,GenWind_1,
2019-06-30, 00:00:06,VALID,919.051,VALID,0.0,VALID,98.937,VALID,0.045,VALID,19.809,INVALID,360.0,VALID,0.0,
2019-06-30, 00:01:06,VALID,919.067,VALID,0.0,VALID,98.938,VALID,0.038,VALID,19.817,INVALID,360.0,VALID,0.0,
2019-06-30, 00:02:06,VALID,919.094,VALID,0.0,VALID,98.946,VALID,0.063,VALID,19.822,INVALID,360.0,VALID,0.0,
2019-06-30, 00:03:06,VALID,919.105,VALID,0.0,VALID,98.995,VALID,0.092,VALID,19.856,INVALID,360.0,VALID,0.0,
2019-06-30, 00:04:06,VALID,919.105,VALID,0.0,VALID,98.942,VALID,0.072,VALID,19.813,INVALID,360.0,VALID,0.0,
2019-06-30, 00:05:06,VALID,919.105,VALID,0.0,VALID,98.922,VALID,0.084,VALID,19.789,INVALID,360.0,VALID,0.0,
2019-06-30, 00:06:06,VALID,919.08,VALID,0.0,VALID,98.945,VALID,0.075,VALID,19.795,INVALID,360.0,VALID,0.0,
2019-06-30, 00:07:06,VALID,919.096,VALID,0.0,VALID,98.939,VALID,0.073,VALID,19.801,INVALID,360.0,VALID,0.0,
2019-06-30, 00:08:06,VALID,919.077,VALID,0.0,VALID,98.949,VALID,0.079,VALID,19.795,INVALID,360.0,VALID,0.0,
2019-06-30, 00:09:06,VALID,919.066,VALID,0.0,VALID,98.955,VALID,0.07,VALID,19.786,INVALID,360.0,VALID,0.0,
2019-06-30, 00:10:06,VALID,919.063,VALID,0.0,VALID,99.007,VALID,0.075,VALID,19.822,INVALID,360.0,VALID,0.0,
2019-06-30, 00:11:06,VALID,919.048,VALID,0.0,VALID,98.983,VALID,0.057,VALID,19.817,INVALID,360.0,VALID,0.0,
2019-06-30, 00:12:06,VALID,919.063,VALID,0.0,VALID,98.992,VALID,0.064,VALID,19.826,INVALID,360.0,VALID,0.0,
2019-06-30, 00:13:06,VALID,919.022,VALID,0.0,VALID,99.033,VALID,0.076,VALID,19.865,INVALID,360.0,VALID,0.0,
2019-06-30, 00:14:06,VALID,919.016,VALID,0.0,VALID,99.065,VALID,0.068,VALID,19.893,INVALID,360.0,VALID,0.0,
2019-06-30, 00:15:06,VALID,918.98,VALID,0.0,VALID,99.062,VALID,0.082,VALID,19.889,INVALID,360.0,VALID,0.0,
2019-06-30, 00:16:06,VALID,918.954,VALID,0.0,VALID,99.006,VALID,0.067,VALID,19.849,INVALID,360.0,VALID,0.0,
2019-06-30, 00:17:06,VALID,918.921,VALID,0.0,VALID,98.966,VALID,0.059,VALID,19.808,INVALID,360.0,VALID,0.0,
2019-06-30, 00:18:06,VALID,918.887,VALID,0.0,VALID,98.983,VALID,0.017,VALID,19.831,INVALID,360.0,VALID,0.0,
2019-06-30, 00:19:06,VALID,918.862,VALID,0.0,VALID,99.014,VALID,0.031,VALID,19.884,INVALID,360.0,VALID,0.0,
2019-06-30, 00:20:06,VALID,918.828,VALID,0.0,VALID,99.042,VALID,0.017,VALID,19.908,INVALID,360.0,VALID,0.0,
2019-06-30, 00:21:06,VALID,918.801,VALID,0.0,VALID,98.992,VALID,0.03,VALID,19.841,INVALID,360.0,VALID,0.0,
2019-06-30, 00:22:06,VALID,918.77,VALID,0.0,VALID,98.95,VALID,0.028,VALID,19.804,INVALID,360.0,VALID,0.0,
2019-06-30, 00:23:06,VALID,918.751,VALID,0.0,VALID,98.96,VALID,0.031,VALID,19.805,INVALID,360.0,VALID,0.0,
2019-06-30, 00:24:06,VALID,918.719,VALID,0.0,VALID,99.0,VALID,0.024,VALID,19.853,INVALID,360.0,VALID,0.0,
2019-06-30, 00:25:06,VALID,918.696,VALID,0.0,VALID,99.004,VALID,0.009,VALID,19.851,INVALID,360.0,VALID,0.0,
2019-06-30, 00:26:06,VALID,918.68,VALID,0.0,VALID,98.953,VALID,0.008,VALID,19.803,INVALID,360.0,VALID,0.0,
2019-06-30, 00:27:06,VALID,918.667,VALID,0.0,VALID,98.948,VALID,0.023,VALID,19.79,INVALID,360.0,VALID,0.0,
2019-06-30, 00:28:06,VALID,918.676,VALID,0.0,VALID,98.878,VALID,0.023,VALID,19.769,INVALID,360.0,VALID,0.0,
2019-06-30, 00:29:06,VALID,918.674,VALID,0.0,VALID,98.841,VALID,0.022,VALID,19.754,INVALID,360.0,VALID,0.0,
2019-06-30, 00:30:06,VALID,918.681,VALID,0.0,VALID,98.837,VALID,0.026,VALID,19.753,INVALID,360.0,VALID,0.0,
2019-06-30, 00:31:06,VALID,918.684,VALID,0.0,VALID,98.831,VALID,0.021,VALID,19.765,INVALID,360.0,VALID,0.0,
2019-06-30, 00:32:06,VALID,918.713,VALID,0.0,VALID,98.813,VALID,0.032,VALID,19.748,INVALID,360.0,VALID,0.0,
2019-06-30, 00:33:06,VALID,918.718,VALID,0.0,VALID,98.791,VALID,0.048,VALID,19.726,INVALID,360.0,VALID,0.0,
2019-06-30, 00:34:06,VALID,918.699,VALID,0.0,VALID,98.756,VALID,0.051,VALID,19.705,INVALID,360.0,VALID,0.0,
2019-06-30, 00:35:06,VALID,918.701,VALID,0.0,VALID,98.786,VALID,0.049,VALID,19.696,INVALID,360.0,VALID,0.0,
2019-06-30, 00:36:06,VALID,918.666,VALID,0.0,VALID,98.792,VALID,0.057,VALID,19.696,INVALID,360.0,VALID,0.0,
2019-06-30, 00:37:06,VALID,918.642,VALID,0.0,VALID,98.812,VALID,0.059,VALID,19.682,INVALID,360.0,VALID,0.0,
2019-06-30, 00:38:06,VALID,918.631,VALID,0.0,VALID,98.824,VALID,0.052,VALID,19.666,INVALID,360.0,VALID,0.0,
2019-06-30, 00:39:06,VALID,918.609,VALID,0.0,VALID,98.855,VALID,0.051,VALID,19.661,INVALID,360.0,VALID,0.0,
2019-06-30, 00:40:06,VALID,918.599,VALID,0.0,VALID,98.908,VALID,0.05,VALID,19.656,INVALID,360.0,VALID,0.0,
2019-06-30, 00:41:06,VALID,918.593,VALID,0.0,VALID,98.939,VALID,0.052,VALID,19.659,INVALID,360.0,VALID,0.0,
2019-06-30, 00:42:06,VALID,918.592,VALID,0.0,VALID,98.982,VALID,0.051,VALID,19.665,INVALID,360.0,VALID,0.0,
2019-06-30, 00:43:06,VALID,918.601,VALID,0.0,VALID,99.009,VALID,0.055,VALID,19.675,INVALID,360.0,VALID,0.0,
2019-06-30, 00:44:06,VALID,918.607,VALID,0.0,VALID,99.046,VALID,0.069,VALID,19.684,INVALID,360.0,VALID,0.0,
2019-06-30, 00:45:06,VALID,918.611,VALID,0.0,VALID,99.03,VALID,0.052,VALID,19.668,INVALID,360.0,VALID,0.0,
2019-06-30, 00:46:06,VALID,918.602,VALID,0.0,VALID,99.074,VALID,0.038,VALID,19.671,INVALID,360.0,VALID,0.0,
2019-06-30, 00:47:06,VALID,918.604,VALID,0.0,VALID,99.075,VALID,0.038,VALID,19.664,INVALID,360.0,VALID,0.0,
2019-06-30, 00:48:06,VALID,918.596,VALID,0.0,VALID,99.077,VALID,0.049,VALID,19.664,INVALID,360.0,VALID,0.0,
2019-06-30, 00:49:06,VALID,918.582,VALID,0.0,VALID,99.09,VALID,0.043,VALID,19.662,INVALID,360.0,VALID,0.0,
2019-06-30, 00:50:06,VALID,918.566,VALID,0.0,VALID,99.107,VALID,0.065,VALID,19.639,INVALID,360.0,VALID,0.0,
2019-06-30, 00:51:06,VALID,918.553,VALID,0.0,VALID,99.09,VALID,0.058,VALID,19.63,INVALID,360.0,VALID,0.0,
2019-06-30, 00:52:06,VALID,918.538,VALID,0.0,VALID,99.093,VALID,0.053,VALID,19.632,INVALID,360.0,VALID,0.0,
2019-06-30, 00:53:06,VALID,918.522,VALID,0.0,VALID,99.127,VALID,0.051,VALID,19.65,INVALID,360.0,VALID,0.0,
2019-06-30, 00:54:06,VALID,918.502,VALID,0.0,VALID,99.15,VALID,0.058,VALID,19.668,INVALID,360.0,VALID,0.0,
2019-06-30, 00:55:06,VALID,918.503,VALID,0.0,VALID,99.134,VALID,0.055,VALID,19.667,INVALID,360.0,VALID,0.0,
2019-06-30, 00:56:06,VALID,918.474,VALID,0.0,VALID,99.118,VALID,0.061,VALID,19.66,INVALID,360.0,VALID,0.0,
2019-06-30, 00:57:06,VALID,918.448,VALID,0.0,VALID,99.148,VALID,0.045,VALID,19.674,INVALID,360.0,VALID,0.0,
2019-06-30, 00:58:06,VALID,918.417,VALID,0.0,VALID,99.161,VALID,0.05,VALID,19.675,INVALID,360.0,VALID,0.0,
2019-06-30, 00:59:06,VALID,918.402,VALID,0.0,VALID,99.155,VALID,0.044,VALID,19.685,INVALID,360.0,VALID,0.0,
2019-06-30, 01:00:06,VALID,918.373,VALID,0.0,VALID,99.182,VALID,0.052,VALID,19.702,INVALID,360.0,VALID,0.0,
2019-06-30, 01:01:06,VALID,918.345,VALID,0.0,VALID,99.148,VALID,0.058,VALID,19.687,INVALID,360.0,VALID,0.0,
2019-06-30, 01:02:06,VALID,918.331,VALID,0.0,VALID,99.148,VALID,0.039,VALID,19.683,INVALID,360.0,VALID,0.0,
2019-06-30, 01:03:06,VALID,918.314,VALID,0.0,VALID,99.155,VALID,0.037,VALID,19.692,INVALID,360.0,VALID,0.0,
2019-06-30, 01:04:06,VALID,918.293,VALID,0.0,VALID,99.144,VALID,0.033,VALID,19.706,INVALID,360.0,VALID,0.0,
2019-06-30, 01:05:06,VALID,918.282,VALID,0.0,VALID,99.183,VALID,0.047,VALID,19.732,INVALID,360.0,VALID,0.0,
2019-06-30, 01:06:06,VALID,918.262,VALID,0.0,VALID,99.171,VALID,0.057,VALID,19.747,INVALID,360.0,VALID,0.0,
2019-06-30, 01:07:06,VALID,918.252,VALID,0.0,VALID,99.171,VALID,0.031,VALID,19.771,INVALID,360.0,VALID,0.0,
2019-06-30, 01:08:06,VALID,918.242,VALID,0.0,VALID,99.107,VALID,0.014,VALID,19.742,INVALID,360.0,VALID,0.0,
2019-06-30, 01:09:06,VALID,918.244,VALID,0.0,VALID,99.083,VALID,0.032,VALID,19.735,INVALID,360.0,VALID,0.0,
2019-06-30, 01:10:06,VALID,918.236,VALID,0.0,VALID,99.048,VALID,0.02,VALID,19.753,INVALID,360.0,VALID,0.0,
2019-06-30, 01:11:06,VALID,918.234,VALID,0.0,VALID,98.993,VALID,0.038,VALID,19.752,INVALID,360.0,VALID,0.0,
2019-06-30, 01:12:06,VALID,918.228,VALID,0.0,VALID,98.986,VALID,0.042,VALID,19.754,INVALID,360.0,VALID,0.0,
2019-06-30, 01:13:06,VALID,918.227,VALID,0.0,VALID,99.025,VALID,0.027,VALID,19.782,INVALID,360.0,VALID,0.0,
2019-06-30, 01:14:06,VALID,918.218,VALID,0.0,VALID,99.061,VALID,0.04,VALID,19.804,INVALID,360.0,VALID,0.0,
2019-06-30, 01:15:06,VALID,918.188,VALID,0.0,VALID,99.049,VALID,0.041,VALID,19.792,INVALID,360.0,VALID,0.0,
2019-06-30, 01:16:06,VALID,918.186,VALID,0.0,VALID,99.029,VALID,0.044,VALID,19.783,INVALID,360.0,VALID,0.0,
2019-06-30, 01:17:06,VALID,918.169,VALID,0.0,VALID,99.026,VALID,0.033,VALID,19.776,INVALID,360.0,VALID,0.0,
2019-06-30, 01:18:06,VALID,918.162,VALID,0.0,VALID,98.984,VALID,0.029,VALID,19.747,INVALID,360.0,VALID,0.0,
2019-06-30, 01:19:06,VALID,918.154,VALID,0.0,VALID,98.994,VALID,0.043,VALID,19.747,INVALID,360.0,VALID,0.0,
2019-06-30, 01:20:06,VALID,918.167,VALID,0.0,VALID,98.976,VALID,0.034,VALID,19.751,INVALID,360.0,VALID,0.0,
2019-06-30, 01:21:06,VALID,918.163,VALID,0.0,VALID,98.999,VALID,0.04,VALID,19.77,INVALID,360.0,VALID,0.0,
2019-06-30, 01:22:06,VALID,918.151,VALID,0.0,VALID,99.004,VALID,0.044,VALID,19.774,INVALID,360.0,VALID,0.0,
2019-06-30, 01:23:06,VALID,918.142,VALID,0.0,VALID,98.994,VALID,0.027,VALID,19.783,INVALID,360.0,VALID,0.0,
2019-06-30, 01:24:06,VALID,918.135,VALID,0.0,VALID,99.01,VALID,0.044,VALID,19.776,INVALID,360.0,VALID,0.0,
2019-06-30, 01:25:06,VALID,918.11,VALID,0.0,VALID,98.973,VALID,0.053,VALID,19.726,INVALID,360.0,VALID,0.0,
2019-06-30, 01:26:06,VALID,918.12,VALID,0.0,VALID,98.978,VALID,0.042,VALID,19.719,INVALID,360.0,VALID,0.0,
2019-06-30, 01:27:06,VALID,918.1,VALID,0.0,VALID,99.011,VALID,0.043,VALID,19.743,INVALID,360.0,VALID,0.0,
2019-06-30, 01:28:06,VALID,918.081,VALID,0.0,VALID,99.026,VALID,0.042,VALID,19.78,INVALID,360.0,VALID,0.0,
2019-06-30, 01:29:06,VALID,918.065,VALID,0.0,VALID,99.022,VALID,0.052,VALID,19.76,INVALID,360.0,VALID,0.0,
2019-06-30, 01:30:06,VALID,918.038,VALID,0.0,VALID,99.05,VALID,0.039,VALID,19.787,INVALID,360.0,VALID,0.0,
2019-06-30, 01:31:06,VALID,918.018,VALID,0.0,VALID,99.058,VALID,0.058,VALID,19.798,INVALID,360.0,VALID,0.0,
2019-06-30, 01:32:06,VALID,918.027,VALID,0.0,VALID,99.032,VALID,0.043,VALID,19.758,INVALID,360.0,VALID,0.0,
2019-06-30, 01:33:06,VALID,918.01,VALID,0.0,VALID,99.002,VALID,0.049,VALID,19.736,INVALID,360.0,VALID,0.0,
2019-06-30, 01:34:06,VALID,917.984,VALID,0.0,VALID,98.982,VALID,0.042,VALID,19.737,INVALID,360.0,VALID,0.0,
2019-06-30, 01:35:06,VALID,917.976,VALID,0.0,VALID,98.971,VALID,0.04,VALID,19.751,INVALID,360.0,VALID,0.0,
2019-06-30, 01:36:06,VALID,917.939,VALID,0.0,VALID,98.948,VALID,0.039,VALID,19.735,INVALID,360.0,VALID,0.0,
2019-06-30, 01:37:06,VALID,917.933,VALID,0.0,VALID,98.918,VALID,0.035,VALID,19.685,INVALID,360.0,VALID,0.0,
2019-06-30, 01:38:06,VALID,917.911,VALID,0.0,VALID,98.87,VALID,0.027,VALID,19.683,INVALID,360.0,VALID,0.0,
2019-06-30, 01:39:06,VALID,917.9,VALID,0.0,VALID,98.884,VALID,0.031,VALID,19.706,INVALID,360.0,VALID,0.0,
2019-06-30, 01:40:06,VALID,917.888,VALID,0.0,VALID,98.893,VALID,0.042,VALID,19.702,INVALID,360.0,VALID,0.0,
2019-06-30, 01:41:06,VALID,917.893,VALID,0.0,VALID,98.806,VALID,0.045,VALID,19.649,INVALID,360.0,VALID,0.0,
2019-06-30, 01:42:06,VALID,917.882,VALID,0.0,VALID,98.72,VALID,0.047,VALID,19.615,INVALID,360.0,VALID,0.0,
2019-06-30, 01:43:06,VALID,917.877,VALID,0.0,VALID,98.678,VALID,0.028,VALID,19.617,INVALID,360.0,VALID,0.0,
2019-06-30, 01:44:06,VALID,917.874,VALID,0.0,VALID,98.619,VALID,0.027,VALID,19.615,INVALID,360.0,VALID,0.0,
2019-06-30, 01:45:06,VALID,917.874,VALID,0.0,VALID,98.576,VALID,0.033,VALID,19.603,INVALID,360.0,VALID,0.0,
2019-06-30, 01:46:06,VALID,917.866,VALID,0.0,VALID,98.555,VALID,0.036,VALID,19.604,INVALID,360.0,VALID,0.0,
2019-06-30, 01:47:06,VALID,917.846,VALID,0.0,VALID,98.531,VALID,0.031,VALID,19.612,INVALID,360.0,VALID,0.0,
2019-06-30, 01:48:06,VALID,917.836,VALID,0.0,VALID,98.56,VALID,0.058,VALID,19.618,INVALID,360.0,VALID,0.0,
2019-06-30, 01:49:06,VALID,917.816,VALID,0.0,VALID,98.577,VALID,0.042,VALID,19.636,INVALID,360.0,VALID,0.0,
2019-06-30, 01:50:06,VALID,917.798,VALID,0.0,VALID,98.593,VALID,0.048,VALID,19.643,INVALID,360.0,VALID,0.0,
2019-06-30, 01:51:06,VALID,917.778,VALID,0.0,VALID,98.559,VALID,0.042,VALID,19.643,INVALID,360.0,VALID,0.0,
2019-06-30, 01:52:06,VALID,917.763,VALID,0.0,VALID,98.581,VALID,0.04,VALID,19.648,INVALID,360.0,VALID,0.0,
2019-06-30, 01:53:06,VALID,917.762,VALID,0.0,VALID,98.614,VALID,0.06,VALID,19.656,INVALID,360.0,VALID,0.0,
2019-06-30, 01:54:06,VALID,917.751,VALID,0.0,VALID,98.652,VALID,0.054,VALID,19.663,INVALID,360.0,VALID,0.0,
2019-06-30, 01:55:06,VALID,917.743,VALID,0.0,VALID,98.639,VALID,0.06,VALID,19.653,INVALID,360.0,VALID,0.0,
2019-06-30, 01:56:06,VALID,917.737,VALID,0.0,VALID,98.647,VALID,0.053,VALID,19.652,INVALID,360.0,VALID,0.0,
2019-06-30, 01:57:06,VALID,917.725,VALID,0.0,VALID,98.683,VALID,0.061,VALID,19.664,INVALID,360.0,VALID,0.0,
2019-06-30, 01:58:06,VALID,917.708,VALID,0.0,VALID,98.706,VALID,0.063,VALID,19.673,INVALID,360.0,VALID,0.0,
2019-06-30, 01:59:06,VALID,917.705,VALID,0.0,VALID,98.732,VALID,0.049,VALID,19.663,INVALID,360.0,VALID,0.0,
2019-06-30, 02:00:06,VALID,917.687,VALID,0.0,VALID,98.701,VALID,0.048,VALID,19.647,INVALID,360.0,VALID,0.0,
2019-06-30, 02:01:06,VALID,917.698,VALID,0.0,VALID,98.709,VALID,0.045,VALID,19.623,INVALID,360.0,VALID,0.0,
2019-06-30, 02:02:06,VALID,917.685,VALID,0.0,VALID,98.675,VALID,0.038,VALID,19.598,INVALID,360.0,VALID,0.0,
2019-06-30, 02:03:06,VALID,917.657,VALID,0.0,VALID,98.667,VALID,0.065,VALID,19.603,INVALID,360.0,VALID,0.0,
2019-06-30, 02:04:06,VALID,917.641,VALID,0.0,VALID,98.677,VALID,0.058,VALID,19.595,INVALID,360.0,VALID,0.0,
2019-06-30, 02:05:06,VALID,917.615,VALID,0.0,VALID,98.695,VALID,0.069,VALID,19.591,INVALID,360.0,VALID,0.0,
2019-06-30, 02:06:06,VALID,917.57,VALID,0.0,VALID,98.727,VALID,0.055,VALID,19.597,INVALID,360.0,VALID,0.0,
2019-06-30, 02:07:06,VALID,917.562,VALID,0.0,VALID,98.785,VALID,0.042,VALID,19.607,INVALID,360.0,VALID,0.0,
2019-06-30, 02:08:06,VALID,917.553,VALID,0.0,VALID,98.793,VALID,0.04,VALID,19.613,INVALID,360.0,VALID,0.0,
2019-06-30, 02:09:06,VALID,917.53,VALID,0.0,VALID,98.843,VALID,0.047,VALID,19.628,INVALID,360.0,VALID,0.0,
2019-06-30, 02:10:06,VALID,917.502,VALID,0.0,VALID,98.888,VALID,0.043,VALID,19.636,INVALID,360.0,VALID,0.0,
2019-06-30, 02:11:06,VALID,917.48,VALID,0.0,VALID,98.938,VALID,0.064,VALID,19.649,INVALID,360.0,VALID,0.0,
2019-06-30, 02:12:06,VALID,917.471,VALID,0.0,VALID,98.953,VALID,0.038,VALID,19.651,INVALID,360.0,VALID,0.0,
2019-06-30, 02:13:06,VALID,917.451,VALID,0.0,VALID,98.972,VALID,0.065,VALID,19.645,INVALID,360.0,VALID,0.0,
2019-06-30, 02:14:06,VALID,917.428,VALID,0.0,VALID,99.018,VALID,0.058,VALID,19.653,INVALID,360.0,VALID,0.0,
2019-06-30, 02:15:06,VALID,917.419,VALID,0.0,VALID,99.059,VALID,0.055,VALID,19.665,INVALID,360.0,VALID,0.0,
2019-06-30, 02:16:06,VALID,917.405,VALID,0.0,VALID,99.082,VALID,0.053,VALID,19.652,INVALID,360.0,VALID,0.0,
2019-06-30, 02:17:06,VALID,917.387,VALID,0.0,VALID,99.062,VALID,0.034,VALID,19.622,INVALID,360.0,VALID,0.0,
2019-06-30, 02:18:06,VALID,917.373,VALID,0.0,VALID,99.067,VALID,0.044,VALID,19.603,INVALID,360.0,VALID,0.0,
2019-06-30, 02:19:06,VALID,917.336,VALID,0.0,VALID,99.125,VALID,0.042,VALID,19.599,INVALID,360.0,VALID,0.0,
2019-06-30, 02:20:06,VALID,917.319,VALID,0.0,VALID,99.155,VALID,0.033,VALID,19.605,INVALID,360.0,VALID,0.0,
2019-06-30, 02:21:06,VALID,917.305,VALID,0.0,VALID,99.187,VALID,0.026,VALID,19.602,INVALID,360.0,VALID,0.0,
2019-06-30, 02:22:06,VALID,917.281,VALID,0.0,VALID,99.184,VALID,0.043,VALID,19.603,INVALID,360.0,VALID,0.0,
2019-06-30, 02:23:06,VALID,917.249,VALID,0.0,VALID,99.213,VALID,0.05,VALID,19.587,INVALID,360.0,VALID,0.0,
2019-06-30, 02:24:06,VALID,917.229,VALID,0.0,VALID,99.208,VALID,0.042,VALID,19.578,INVALID,360.0,VALID,0.0,
2019-06-30, 02:25:06,VALID,917.212,VALID,0.0,VALID,99.235,VALID,0.056,VALID,19.577,INVALID,360.0,VALID,0.0,
2019-06-30, 02:26:06,VALID,917.194,VALID,0.0,VALID,99.237,VALID,0.039,VALID,19.592,INVALID,360.0,VALID,0.0,
2019-06-30, 02:27:06,VALID,917.181,VALID,0.0,VALID,99.273,VALID,0.048,VALID,19.592,INVALID,360.0,VALID,0.0,
2019-06-30, 02:28:06,VALID,917.169,VALID,0.0,VALID,99.263,VALID,0.039,VALID,19.587,INVALID,360.0,VALID,0.0,
2019-06-30, 02:29:06,VALID,917.196,VALID,0.0,VALID,99.284,VALID,0.047,VALID,19.587,INVALID,360.0,VALID,0.0,
2019-06-30, 02:30:06,VALID,917.188,VALID,0.0,VALID,99.272,VALID,0.057,VALID,19.577,INVALID,360.0,VALID,0.0,
2019-06-30, 02:31:06,VALID,917.211,VALID,0.0,VALID,99.3,VALID,0.056,VALID,19.566,INVALID,360.0,VALID,0.0,
2019-06-30, 02:32:06,VALID,917.205,VALID,0.0,VALID,99.291,VALID,0.044,VALID,19.541,INVALID,360.0,VALID,0.0,
2019-06-30, 02:33:06,VALID,917.195,VALID,0.0,VALID,99.317,VALID,0.052,VALID,19.545,INVALID,360.0,VALID,0.0,
2019-06-30, 02:34:06,VALID,917.179,VALID,0.0,VALID,99.319,VALID,0.029,VALID,19.523,INVALID,360.0,VALID,0.0,
2019-06-30, 02:35:06,VALID,917.14,VALID,0.0,VALID,99.278,VALID,0.042,VALID,19.495,INVALID,360.0,VALID,0.0,
2019-06-30, 02:36:06,VALID,917.116,VALID,0.0,VALID,99.278,VALID,0.062,VALID,19.489,INVALID,360.0,VALID,0.0,
2019-06-30, 02:37:06,VALID,917.086,VALID,0.0,VALID,99.279,VALID,0.061,VALID,19.49,INVALID,360.0,VALID,0.0,
2019-06-30, 02:38:06,VALID,917.054,VALID,0.0,VALID,99.269,VALID,0.03,VALID,19.486,INVALID,360.0,VALID,0.0,
2019-06-30, 02:39:06,VALID,917.031,VALID,0.0,VALID,99.263,VALID,0.044,VALID,19.493,INVALID,360.0,VALID,0.0,
2019-06-30, 02:40:06,VALID,916.999,VALID,0.0,VALID,99.235,VALID,0.042,VALID,19.505,INVALID,360.0,VALID,0.0,
2019-06-30, 02:41:06,VALID,916.994,VALID,0.0,VALID,99.242,VALID,0.045,VALID,19.524,INVALID,360.0,VALID,0.0,
2019-06-30, 02:42:06,VALID,916.959,VALID,0.0,VALID,99.186,VALID,0.049,VALID,19.527,INVALID,360.0,VALID,0.0,
2019-06-30, 02:43:06,VALID,916.957,VALID,0.0,VALID,99.122,VALID,0.045,VALID,19.53,INVALID,360.0,VALID,0.0,
2019-06-30, 02:44:06,VALID,916.943,VALID,0.0,VALID,99.088,VALID,0.048,VALID,19.521,INVALID,360.0,VALID,0.0,
2019-06-30, 02:45:06,VALID,916.921,VALID,0.0,VALID,99.04,VALID,0.04,VALID,19.523,INVALID,360.0,VALID,0.0,
2019-06-30, 02:46:06,VALID,916.902,VALID,0.0,VALID,99.0,VALID,0.046,VALID,19.526,INVALID,360.0,VALID,0.0,
2019-06-30, 02:47:06,VALID,916.896,VALID,0.0,VALID,98.942,VALID,0.042,VALID,19.525,INVALID,360.0,VALID,0.0,
2019-06-30, 02:48:06,VALID,916.885,VALID,0.0,VALID,98.865,VALID,0.031,VALID,19.534,INVALID,360.0,VALID,0.0,
2019-06-30, 02:49:06,VALID,916.854,VALID,0.0,VALID,98.807,VALID,0.029,VALID,19.54,INVALID,360.0,VALID,0.0,
2019-06-30, 02:50:06,VALID,916.817,VALID,0.0,VALID,98.754,VALID,0.022,VALID,19.554,INVALID,360.0,VALID,0.0,
2019-06-30, 02:51:06,VALID,916.82,VALID,0.0,VALID,98.674,VALID,0.018,VALID,19.556,INVALID,360.0,VALID,0.0,
2019-06-30, 02:52:06,VALID,916.801,VALID,0.0,VALID,98.608,VALID,0.039,VALID,19.563,INVALID,360.0,VALID,0.0,
2019-06-30, 02:53:06,VALID,916.773,VALID,0.0,VALID,98.564,VALID,0.033,VALID,19.567,INVALID,360.0,VALID,0.0,
2019-06-30, 02:54:06,VALID,916.746,VALID,0.0,VALID,98.542,VALID,0.032,VALID,19.555,INVALID,360.0,VALID,0.0,
2019-06-30, 02:55:06,VALID,916.738,VALID,0.0,VALID,98.578,VALID,0.048,VALID,19.556,INVALID,360.0,VALID,0.0,
2019-06-30, 02:56:06,VALID,916.709,VALID,0.0,VALID,98.657,VALID,0.029,VALID,19.546,INVALID,360.0,VALID,0.0,
2019-06-30, 02:57:06,VALID,916.705,VALID,0.0,VALID,98.698,VALID,0.029,VALID,19.521,INVALID,360.0,VALID,0.0,
2019-06-30, 02:58:06,VALID,916.718,VALID,0.0,VALID,98.701,VALID,0.044,VALID,19.528,INVALID,360.0,VALID,0.0,
2019-06-30, 02:59:06,VALID,916.727,VALID,0.0,VALID,98.723,VALID,0.04,VALID,19.52,INVALID,360.0,VALID,0.0,
2019-06-30, 03:00:06,VALID,916.724,VALID,0.0,VALID,98.694,VALID,0.048,VALID,19.523,INVALID,360.0,VALID,0.0,
2019-06-30, 03:01:06,VALID,916.711,VALID,0.0,VALID,98.65,VALID,0.048,VALID,19.527,INVALID,360.0,VALID,0.0,
2019-06-30, 03:02:06,VALID,916.698,VALID,0.0,VALID,98.584,VALID,0.029,VALID,19.525,INVALID,360.0,VALID,0.0,
2019-06-30, 03:03:06,VALID,916.681,VALID,0.0,VALID,98.507,VALID,0.027,VALID,19.535,INVALID,360.0,VALID,0.0,
2019-06-30, 03:04:06,VALID,916.662,VALID,0.0,VALID,98.45,VALID,0.043,VALID,19.541,INVALID,360.0,VALID,0.0,
2019-06-30, 03:05:06,VALID,916.659,VALID,0.0,VALID,98.404,VALID,0.035,VALID,19.554,INVALID,360.0,VALID,0.0,
2019-06-30, 03:06:06,VALID,916.663,VALID,0.0,VALID,98.299,VALID,0.045,VALID,19.563,INVALID,360.0,VALID,0.0,
2019-06-30, 03:07:06,VALID,916.674,VALID,0.0,VALID,98.2,VALID,0.041,VALID,19.584,INVALID,360.0,VALID,0.0,
2019-06-30, 03:08:06,VALID,916.655,VALID,0.0,VALID,97.995,VALID,0.02,VALID,19.609,INVALID,360.0,VALID,0.0,
2019-06-30, 03:09:06,VALID,916.627,VALID,0.0,VALID,97.857,VALID,0.022,VALID,19.627,INVALID,360.0,VALID,0.0,
2019-06-30, 03:10:06,VALID,916.613,VALID,0.0,VALID,97.763,VALID,0.029,VALID,19.637,INVALID,360.0,VALID,0.0,
2019-06-30, 03:11:06,VALID,916.6,VALID,0.0,VALID,97.726,VALID,0.04,VALID,19.651,INVALID,360.0,VALID,0.0,
2019-06-30, 03:12:06,VALID,916.587,VALID,0.0,VALID,97.705,VALID,0.045,VALID,19.676,INVALID,360.0,VALID,0.0,
2019-06-30, 03:13:06,VALID,916.545,VALID,0.0,VALID,97.652,VALID,0.046,VALID,19.691,INVALID,360.0,VALID,0.0,
2019-06-30, 03:14:06,VALID,916.531,VALID,0.0,VALID,97.631,VALID,0.034,VALID,19.701,INVALID,360.0,VALID,0.0,
2019-06-30, 03:15:06,VALID,916.51,VALID,0.0,VALID,97.64,VALID,0.028,VALID,19.691,INVALID,360.0,VALID,0.0,
2019-06-30, 03:16:06,VALID,916.506,VALID,0.0,VALID,97.687,VALID,0.029,VALID,19.691,INVALID,360.0,VALID,0.0,
2019-06-30, 03:17:06,VALID,916.492,VALID,0.0,VALID,97.808,VALID,0.032,VALID,19.702,INVALID,360.0,VALID,0.0,
2019-06-30, 03:18:06,VALID,916.484,VALID,0.0,VALID,97.848,VALID,0.011,VALID,19.709,INVALID,360.0,VALID,0.0,
2019-06-30, 03:19:06,VALID,916.472,VALID,0.0,VALID,97.858,VALID,0.022,VALID,19.709,INVALID,360.0,VALID,0.0,
2019-06-30, 03:20:06,VALID,916.477,VALID,0.0,VALID,97.903,VALID,0.018,VALID,19.729,INVALID,360.0,VALID,0.0,
2019-06-30, 03:21:06,VALID,916.476,VALID,0.0,VALID,97.816,VALID,0.009,VALID,19.755,INVALID,360.0,VALID,0.0,
2019-06-30, 03:22:06,VALID,916.457,VALID,0.2,VALID,97.724,VALID,0.005,VALID,19.768,INVALID,360.0,VALID,0.0,
2019-06-30, 03:23:06,VALID,916.443,VALID,0.0,VALID,97.652,VALID,0.006,VALID,19.786,INVALID,360.0,VALID,0.0,
2019-06-30, 03:24:06,VALID,916.443,VALID,0.0,VALID,97.642,VALID,0.009,VALID,19.797,INVALID,360.0,VALID,0.0,
2019-06-30, 03:25:06,VALID,916.449,VALID,0.0,VALID,97.682,VALID,0.009,VALID,19.794,INVALID,360.0,VALID,0.0,
2019-06-30, 03:26:06,VALID,916.451,VALID,0.0,VALID,97.681,VALID,-0.003,VALID,19.802,INVALID,360.0,VALID,0.0,
2019-06-30, 03:27:06,VALID,916.431,VALID,0.0,VALID,97.528,VALID,-0.016,VALID,19.811,INVALID,360.0,VALID,0.0,
2019-06-30, 03:28:06,VALID,916.426,VALID,0.0,VALID,97.436,VALID,0.015,VALID,19.824,INVALID,360.0,VALID,0.0,
2019-06-30, 03:29:06,VALID,916.422,VALID,0.0,VALID,97.4,VALID,0.016,VALID,19.83,INVALID,360.0,VALID,0.0,
2019-06-30, 03:30:06,VALID,916.418,VALID,0.0,VALID,97.356,VALID,-0.007,VALID,19.839,INVALID,360.0,VALID,0.0,
2019-06-30, 03:31:06,VALID,916.417,VALID,0.0,VALID,97.391,VALID,-0.001,VALID,19.833,INVALID,360.0,VALID,0.0,
2019-06-30, 03:32:06,VALID,916.425,VALID,0.0,VALID,97.42,VALID,0.021,VALID,19.823,INVALID,360.0,VALID,0.0,
2019-06-30, 03:33:06,VALID,916.419,VALID,0.0,VALID,97.433,VALID,0.047,VALID,19.816,INVALID,360.0,VALID,0.0,
2019-06-30, 03:34:06,VALID,916.417,VALID,0.0,VALID,97.486,VALID,0.058,VALID,19.804,INVALID,360.0,VALID,0.0,
2019-06-30, 03:35:06,VALID,916.417,VALID,0.0,VALID,97.594,VALID,0.073,VALID,19.806,INVALID,360.0,VALID,0.0,
2019-06-30, 03:36:06,VALID,916.411,VALID,0.0,VALID,97.624,VALID,0.06,VALID,19.785,INVALID,360.0,VALID,0.0,
2019-06-30, 03:37:06,VALID,916.41,VALID,0.0,VALID,97.678,VALID,0.055,VALID,19.773,INVALID,360.0,VALID,0.0,
2019-06-30, 03:38:06,VALID,916.394,VALID,0.0,VALID,97.682,VALID,0.056,VALID,19.772,INVALID,360.0,VALID,0.0,